Location: Foots Cray
(51.4000°N, 0.1167°E)
Time: 07:35:49
(UTC+00:00)

Daily predictions for brighter satellites

Satellite Brightness Start Highest point End
(mag) Time Altitude Azimuth Time Altitude Azimuth Time Altitude Azimuth
Cosmos 909 Rocket 4.2 20:14:58 10° SSW 20:21:05 55° ESE 20:27:25 10° NE
ADEOS 3.8 20:27:27 10° S 20:32:40 73° WSW 20:37:54 10° NNW
Cosmos 1805 4.4 20:31:21 10° NNE 20:33:53 21° ENE 20:36:25 10° ESE
Cosmos 1725 Rocket 4.3 20:29:17 10° SSW 20:35:33 76° W 20:41:48 10° N
NOSS 3-3 (C) 3.8 20:31:05 10° SSW 20:36:15 62° SE 20:42:30 10° NE
Cosmos 2322 Rocket 2.7 20:34:45 10° NNW 20:40:17 52° NE 20:45:49 10° SE
USA 306 2.5 20:41:25 10° W 20:44:32 50° NNW 20:46:38 10° ENE
Cosmos 1602 Rocket 4.1 20:40:34 10° N 20:44:43 44° ENE 20:48:44 11° SSE
Tsikada Rocket 4.2 20:38:56 10° NNW 20:45:07 75° W 20:51:14 10° S
Cosmos 2082 Rocket 2.5 20:40:24 10° SW 20:46:07 77° WNW 20:51:52 10° NNE
NOSS 3-4 (A) 3.9 20:41:01 10° NW 20:47:32 77° NE 20:55:06 11° SE
NOSS 3-4 (C) 3.9 20:41:38 10° NW 20:48:11 77° NE 20:55:45 11° SE
Cosmos 2016 Rocket 4.4 20:43:13 10° SSW 20:49:25 67° WNW 20:55:35 10° N
YAOGAN 11 4.2 20:47:36 10° NNE 20:52:01 63° ESE 20:56:27 10° S
CZ-4B R/B 2.9 20:49:58 12° SE 20:52:57 46° ENE 20:56:20 10° N
Cosmos 2151 2.9 20:50:55 10° N 20:55:02 76° ENE 20:59:05 10° SSE
Cosmos 2098 Rocket 3.9 20:53:24 10° SSE 20:57:30 33° E 21:01:11 10° NNE
ATLAS 2AS CENTAUR R/B 4.5 20:51:37 10° W 20:57:48 34° NNW 21:03:56 10° NE
CZ-4C R/B 3.5 20:54:47 10° W 20:59:10 40° NNW 21:04:48 10° NE
Cosmos 1626 Rocket 3.8 20:56:29 10° NNW 21:00:51 72° W 21:05:13 10° S
Cosmos 1782 4.4 20:59:45 10° SW 21:02:58 32° WNW 21:06:11 10° N
Ariane Rocket 3.2 20:59:02 12° SE 21:03:35 59° ENE 21:08:34 10° N
Cosmos 2278 3.8 21:01:48 10° NNW 21:07:34 84° WSW 21:12:37 14° SSE
Spot 2 Rocket 4.1 21:04:04 10° S 21:08:58 54° W 21:13:56 10° NNW
SL-16 R/B 2.5 21:05:56 10° NW 21:11:34 64° WSW 21:16:43 12° SSE
COSMOS 2428 4.3 21:07:11 10° NNW 21:11:55 26° NE 21:16:38 10° E
Meteor 1-5 Rocket 4.4 21:06:54 10° N 21:12:38 64° ENE 21:17:38 14° SSE
SPOT 3 Rocket 3.5 21:09:24 12° SSE 21:14:12 88° ENE 21:19:22 10° NNW
Cosmos 1763 Rocket 4.4 21:10:53 14° SSE 21:14:39 30° E 21:19:10 10° NE
USA 186 2.8 21:13:06 10° SSW 21:15:38 34° W 21:18:12 10° NNW
USA 290 3.1 21:18:07 20° SSE 21:19:33 29° ESE 21:22:19 10° NE
Cosmos 1606 Rocket 4.0 21:17:15 16° SSE 21:20:23 41° E 21:24:26 10° NNE
Cosmos 990 Rocket 4.4 21:17:06 10° NNW 21:22:11 53° ENE 21:26:04 17° SE
Cosmos 1513 Rocket 4.4 21:16:08 10° S 21:22:20 77° E 21:28:28 10° NNE
Cosmos 1933 3.2 21:20:21 10° SSW 21:24:08 82° W 21:27:59 10° N
Cosmos 1464 Rocket 4.1 21:18:41 11° S 21:24:22 58° E 21:30:26 10° NNE
ISS -3.8 21:21:41 10° W 21:25:02 85° N 21:28:15 11° E
SL-08 R/B 4.4 21:20:48 10° N 21:25:26 48° WNW 21:29:58 10° SW
Cosmos 1461 2.6 21:22:10 10° SW 21:25:52 80° NW 21:29:34 10° NE
Helios 1B rocket 4.3 21:24:28 10° E 21:26:26 15° ENE 21:28:25 10° NNE
CZ-4B R/B 3.4 21:23:15 15° SSE 21:27:13 87° WSW 21:32:07 10° NNW
BREEZE-M DEB (TANK) 1.2 21:24:34 10° WSW 21:27:21 52° S 21:28:12 27° ESE
Okean 1 3.7 21:25:54 21° SSE 21:27:46 36° E 21:31:07 10° NNE
Cosmos 1726 Rocket 4.1 21:25:49 19° SE 21:28:05 34° E 21:31:46 10° NNE
COSMOS 2406 3.5 21:24:30 10° SW 21:30:15 73° WNW 21:36:01 10° NNE
Terra 4.1 21:28:13 10° SW 21:31:35 19° W 21:34:58 10° NW
Okean O Rocket 3.1 21:30:43 10° SSW 21:34:31 30° W 21:38:21 10° NNW
Cosmos 1536 4.2 21:32:12 10° NNE 21:35:12 23° ENE 21:36:59 17° ESE
Cosmos-2242 4.1 21:37:47 20° SE 21:39:29 27° E 21:42:58 10° NNE
Cosmos 1777 Rocket 4.1 21:34:20 10° NNW 21:39:33 70° WSW 21:43:21 18° S
Cosmos 1092 Rocket 4.5 21:35:11 10° N 21:41:08 47° ENE 21:45:21 19° SE
Cosmos 1437 Rocket 3.6 21:38:13 10° SSW 21:41:39 45° WNW 21:45:09 10° N
Cosmos 2333 Rocket 3.0 21:36:33 10° NW 21:41:56 44° WSW 21:46:30 14° S
Okean 1-7 Rocket 3.7 21:42:41 10° NNW 21:47:10 76° W 21:50:19 19° S
Cosmos 1833 4.4 21:44:13 13° S 21:49:09 52° ESE 21:54:36 10° NE
Cosmos 1503 Rocket 4.0 21:44:26 10° NNW 21:49:38 74° WSW 21:53:04 21° SSE
Cosmos 2360 Rocket 2.5 21:46:14 10° NW 21:51:50 60° WSW 21:55:44 20° S
CZ-2C R/B 2.5 21:52:45 28° SSW 21:53:54 50° WSW 21:56:38 10° NNW
Cosmos 1766 3.4 21:52:37 10° N 21:55:43 41° ENE 21:56:45 30° ESE
Cosmos 2322 4.4 21:50:41 10° NNW 21:56:11 46° NE 22:00:18 17° ESE
Cosmos 372 Rocket 4.4 21:57:19 10° NNW 22:02:20 52° ENE 22:05:24 22° SE
Cosmos 2034 Rocket 4.0 21:58:36 18° S 22:03:31 74° E 22:09:51 10° NNE
Cosmos 2221 4.3 22:03:18 15° ESE 22:04:22 17° E 22:07:02 10° NE
Cosmos 2219 Rocket 2.3 21:58:56 10° NNW 22:04:35 74° WSW 22:08:05 24° SSE
Cosmos 1354 Rocket 4.0 21:59:24 10° NNW 22:04:41 79° WSW 22:07:46 25° SSE
Cosmos 1271 Rocket 4.1 22:06:21 19° E 22:06:35 19° E 22:09:01 10° NE
Cosmos 1805 4.5 22:04:44 10° NNW 22:07:34 27° W 22:09:31 16° SW
Cosmos 1825 Rocket 4.1 22:06:54 10° NNW 22:11:08 51° W 22:13:51 21° SSW
Cosmos 540 Rocket 3.4 22:07:44 18° SSW 22:11:38 72° ESE 22:16:47 10° NNE
USA 306 2.7 22:09:30 10° WNW 22:11:19 30° NNW 22:11:19 30° NNW
Nadezhda 4 Rocket 4.4 22:09:21 10° NNW 22:15:20 57° W 22:20:00 17° SSW
Helios 1A 3.1 22:13:03 10° NNE 22:16:52 47° E 22:18:07 34° SSE
Cosmos 1953 Rocket 3.6 22:13:39 10° NNW 22:18:01 73° W 22:20:10 29° S
RESURS DK-1 2.9 22:15:00 10° NNW 22:18:52 49° NE 22:20:45 26° ESE
Aureole 1 Rocket 3.9 22:14:39 10° NNW 22:20:25 90° WSW 22:24:34 25° SSE
Cosmos 1707 1.7 22:23:33 65° SSE 22:23:52 76° E 22:26:42 10° NNE
Cosmos 2322 Rocket 3.3 22:19:05 10° NW 22:24:08 34° WSW 22:27:37 18° SSW
Cosmos 1634 Rocket 4.1 22:22:34 25° SSE 22:26:10 63° E 22:32:19 10° NNE
Cosmos 1937 Rocket 4.1 22:22:14 10° NNW 22:27:13 47° ENE 22:30:09 23° ESE
TSX-5 3.2 22:25:58 10° NNW 22:29:07 83° ENE 22:29:55 49° SE
Cosmos 2058 Rocket 2.9 22:30:59 33° S 22:32:54 79° E 22:37:15 10° NNE
Geosat 4.0 22:28:01 10° NE 22:32:59 60° ESE 22:35:38 27° S
Cosmos 468 Rocket 4.0 22:30:14 27° S 22:33:04 63° ESE 22:38:16 10° NNE
Cosmos 1076 Rocket 4.5 22:30:44 10° NNW 22:34:43 39° W 22:36:55 22° SSW
Cosmos 2026 Rocket 4.3 22:31:19 10° NNW 22:37:39 67° W 22:41:40 24° S
Meteor 2-9 Rocket 4.4 22:33:19 10° N 22:38:40 59° ENE 22:41:25 29° SE
Cosmos 44 3.7 22:33:24 10° NW 22:38:42 58° SW 22:41:01 32° S
CZ-2C R/B 4.3 22:39:09 12° ESE 22:42:49 23° ENE 22:46:51 10° N
Cosmos 2237 Rocket 3.1 22:37:40 10° NNW 22:43:05 42° NE 22:47:09 17° ESE
Cosmos 1980 4.4 22:41:55 10° NNW 22:47:24 47° NE 22:51:12 19° ESE
USA 234 4.2 22:43:22 10° ENE 22:48:41 26° SE 22:49:36 25° SE
Cosmos 1470 2.2 22:45:31 10° N 22:48:50 72° ENE 22:49:19 58° SE
ATLAS 2AS CENTAUR R/B 4.5 22:44:36 10° NW 22:50:33 30° N 22:56:27 10° ENE
ARIANE 5 R/B 2.8 22:52:41 36° SE 22:54:23 65° ENE 22:58:50 10° N
Cosmos 1763 Rocket 4.3 22:50:59 10° SW 22:56:07 51° WNW 23:01:16 10° NNE
ALOS 2 2.9 22:54:46 34° SE 22:56:27 56° ENE 23:00:46 10° N
COSMOS 2428 2.7 22:51:07 10° NNW 22:56:51 84° WSW 22:59:34 32° SSE
Cosmos 2227 Rocket 4.2 22:55:49 12° ESE 22:57:03 13° E 22:59:31 10° ENE
Helios 1B rocket 2.2 22:58:18 47° SSW 22:59:00 59° WSW 23:02:29 10° NNW
ISS -3.1 22:58:31 10° W 23:01:11 41° WSW 23:01:11 41° WSW
Cosmos 1898 Rocket 3.5 22:57:13 10° NNW 23:02:25 75° WSW 23:04:33 36° S
CZ-2C R/B 4.4 23:02:08 10° NNE 23:07:15 32° E 23:09:26 24° SE
Meteor 1-11 Rocket 3.9 23:01:54 10° N 23:07:34 66° ENE 23:10:10 32° SSE
Cosmos 1536 3.8 23:07:10 10° NNW 23:10:29 32° W 23:11:30 27° SW
CSL-04 DEB 4.5 23:10:19 44° SW 23:10:59 51° WSW 23:14:33 10° NNW
SAR-Lupe-2 3.7 23:10:57 47° ESE 23:11:26 52° ENE 23:14:41 10° N
Cosmos 1238 Rocket 4.3 23:14:04 23° ESE 23:14:59 25° E 23:18:35 10° NNE
PSLV R/B 4.0 23:12:02 10° NNE 23:16:14 48° E 23:17:16 40° SE
Cosmos-2242 4.3 23:14:02 19° SW 23:16:22 33° WNW 23:20:08 10° N
NOSS 8 (H) 4.0 23:16:38 10° NW 23:19:30 82° NE 23:19:31 82° NE
NOSS 0 Rocket 4.0 23:21:57 10° NW 23:28:04 67° WSW 23:30:48 34° S
Meteor 1-27 Rocket 4.2 23:25:49 32° SSE 23:28:10 50° E 23:33:40 10° NNE
Cosmos 841 Rocket 3.4 23:27:23 33° SSW 23:29:46 90° WNW 23:35:04 10° NNE
Cosmos 2297 Rocket 2.5 23:27:59 35° SSE 23:29:52 49° ESE 23:35:18 10° NE
Cosmos 1842 3.9 23:29:26 30° W 23:30:02 33° WNW 23:32:57 10° N
Cosmos 1975 3.1 23:29:23 10° NNW 23:32:55 45° W 23:33:29 41° WSW
Cosmos 2142 Rocket 4.5 23:30:57 31° SSW 23:34:11 84° W 23:40:26 10° N
Cosmos 2180 Rocket 4.5 23:32:27 31° SSW 23:35:39 85° W 23:42:02 10° N
Spot 4 4.2 23:36:12 37° SSW 23:37:46 54° W 23:42:29 10° NNW
Cosmos 2322 4.5 23:35:03 10° NW 23:40:17 39° WSW 23:42:12 30° SSW
Cosmos 1271 Rocket 3.7 23:39:41 28° WSW 23:40:35 33° WNW 23:43:41 10° N
Cosmos 2221 2.8 23:39:35 38° SW 23:40:55 57° WNW 23:45:05 10° N
Cosmos 1812 Rocket 3.6 23:39:58 43° SSW 23:41:20 77° W 23:45:47 10° N
ACS3 Solar Sail 3.2 23:38:27 10° NE 23:43:13 24° E 23:46:10 17° SE
MetOp-A 3.8 23:42:38 39° SSE 23:44:25 83° ENE 23:49:04 10° NNW
Helios 1B 4.4 23:42:57 10° NNE 23:47:14 89° WNW 23:48:25 47° SSW
Cosmos 2219 Rocket 4.3 23:44:47 10° WNW 23:47:32 14° W 23:49:46 11° WSW
NOSS 8 (E) 4.4 23:47:14 10° NW 23:49:44 59° WNW 23:49:44 59° WNW
RESURS DK-1 3.9 23:52:54 10° WNW 23:55:55 21° WSW 23:55:58 21° WSW
